LEMUR-2-LIU-POU-CHUN

Last updated on Wed Feb 14 2018 16:20:55 GMT+0000 (Coordinated Universal Time)

1 43054U 17071T 18044.87184117 .00004196 00000-0 11853-3 0 9997 2 43054 51.6392 281.6431 0001266 91.8089 268.3040 15.38588996 10599

Satellite not in orbit

LEMUR-2-LIU-POU-CHUN